Location: Stara Lesna
(49.1528°N, 20.2911°E)
Time: 20:14:21
(UTC+02:00)

Cosmos 1782 - Pass Details

Date: 21 September 2019
Orbit: 539 x 551 km, 82.5° (Epoch: 23 October)

Event Time Altitude Azimuth Distance (km) Brightness Sun altitude
Exits shadow 04:56:09 17° 295° (WNW) 1,403 4.5 -14.8°
Drops below altitude 10° 04:58:46 10° 336° (NNW) 1,813 5.4 -14.4°
Sets 05:01:33 0° 357° (N) 2,713 6.6 -13.9°
